Project,Study,Ord_Occ,Event_Num,Cast_ID,Date_Time_UTC,Date_Time_PST,Lat_Dec,Lon_Dec,Sta_ID,Line,Sta,Depth,Pressure,PrQ,Temp1,Temp1Q,Temp2,Temp2Q,TempAve,Salt1,Salt1Q,Salt1_Corr,Salt2,Salt2Q,Salt2_Corr,SaltAve_Corr,Ox1,Ox1Q,Ox1_CruiseCorr,Ox1_StaCorr,Ox2,Ox2Q,Ox2_CruiseCorr,Ox2_StaCorr,OxAve_StaCorr,Ox1uM,Ox1uM_CruiseCorr,Ox1uM_StaCorr,Ox2uM,Ox2uM_CruiseCorr,Ox2uM_StaCorr,OxAveuM_StaCorr,FluorV,FluorQ,EstChl_CruiseCorr,EstChl_StaCorr,ISUSV,ISUSQ,EstNO3_CruiseCorr,EstNO3_StaCorr,SigThetaTS1,SigThetaTS1Q,SigThetaTS2,SigThetaTS2Q,BAT,XMiss,TransQ,pH,pHQ,SPAR,SPARQ,PAR,PARQ,PoT1,PoT2,DynHt,SVA,OxSat1,OxSat2,BTL_Depth,BTL_Temp,SaltB,OxB,OxBuM,Chl-a,Phaeo,NO3,NO2,NH4,PO4,SIL
CalCOFI,2101RL,027,,2101_027d,22-Jan-2021 13:27:54,22-Jan-2021 05:27:54,33.18073,-118.38834,090.0 037.0,090.0,037.0,2.000,2.014,,15.2793,,15.2798,,15.2796,33.5025,,33.5083,33.4989,,33.5009,33.5046,5.6189,,5.8806,5.8700,5.5250,,5.8661,5.8281,5.8491,244.876,256.5964,210.1683,240.788,272.7584,207.4148,208.7916,0.0638,,0.2746,0.2680, ,, , ,24.7566,,24.7538,,0.8113,81.6417,,,,3.3113E+00,,8.8855E-02,,15.2790,15.2795,0.0002,318.002,98.346,96.703,2,,33.4961,5.862,255.57,0.291,0.067,,,,,
CalCOFI,2101RL,027,,2101_027d,22-Jan-2021 13:27:58,22-Jan-2021 05:27:58,33.18074,-118.38834,090.0 037.0,090.0,037.0,3.000,3.021,,15.2796,,15.2798,,15.2797,33.5025,,33.5083,33.4990,,33.5010,33.5047,5.6351,,5.8976,5.8870,5.5389,,5.8809,5.8428,5.8649,245.585,257.3386,210.7302,241.392,273.5468,207.8927,209.3115,0.0649,,0.2836,0.2773, ,, , ,24.7566,,24.7539,,0.8108,81.6517,,,,3.5625E+00,,6.1743E-02,,15.2791,15.2794,0.0035,318.036,98.632,96.946,,,,,,,,,,,,
CalCOFI,2101RL,027,,2101_027d,22-Jan-2021 13:27:59,22-Jan-2021 05:27:59,33.18072,-118.38834,090.0 037.0,090.0,037.0,4.000,4.029,,15.2797,,15.2803,,15.2800,33.5026,,33.5084,33.4990,,33.5010,33.5047,5.6267,,5.8888,5.8782,5.5675,,5.9112,5.8731,5.8757,245.220,256.9565,210.4409,242.636,273.1409,208.8769,209.6589,0.0609,,0.2508,0.2435, ,, , ,24.7567,,24.7538,,0.8111,81.6452,,,,3.5145E+00,,4.3296E-02,,15.2791,15.2797,0.0067,318.057,98.485,97.446,,,,,,,,,,,,
CalCOFI,2101RL,027,,2101_027d,22-Jan-2021 13:28:01,22-Jan-2021 05:28:01,33.18072,-118.38834,090.0 037.0,090.0,037.0,5.000,5.036,,15.2787,,15.2791,,15.2789,33.5024,,33.5082,33.4990,,33.5010,33.5046,5.6185,,5.8802,5.8696,5.5865,,5.9314,5.8932,5.8814,244.860,256.5796,210.1556,243.466,272.7406,209.5336,209.8446,0.0614,,0.2549,0.2477, ,, , ,24.7569,,24.7541,,0.8195,81.4749,,,,3.3664E+00,,3.5385E-02,,15.2779,15.2783,0.0099,318.075,98.339,97.777,,,,,,,,,,,,
CalCOFI,2101RL,027,,2101_027d,22-Jan-2021 13:28:02,22-Jan-2021 05:28:02,33.18072,-118.38834,090.0 037.0,090.0,037.0,6.000,6.043,,15.2786,,15.2789,,15.2788,33.5021,,33.5079,33.4987,,33.5007,33.5043,5.6158,,5.8774,5.8668,5.5652,,5.9088,5.8707,5.8688,244.743,256.4572,210.0629,242.536,272.6105,208.7978,209.4304,0.0639,,0.2754,0.2688, ,, , ,24.7567,,24.7539,,0.8102,81.6648,,,,3.5153E+00,,2.6111E-02,,15.2777,15.2780,0.0131,318.124,98.291,97.403,,,,,,,,,,,,
CalCOFI,2101RL,027,,2101_027d,22-Jan-2021 13:28:04,22-Jan-2021 05:28:04,33.18072,-118.38834,090.0 037.0,090.0,037.0,7.000,7.050,,15.2726,,15.2711,,15.2719,33.5008,,33.5066,33.4973,,33.4993,33.5030,5.6023,,5.8633,5.8527,5.5572,,5.9003,5.8622,5.8575,244.157,255.8437,209.5984,242.188,271.9588,208.5225,209.0605,0.0616,,0.2566,0.2493, ,, , ,24.7570,,24.7547,,0.8105,81.6586,,,,3.6944E+00,,1.9928E-02,,15.2716,15.2700,0.0163,318.119,98.043,97.247,,,,,,,,,,,,
CalCOFI,2101RL,027,,2101_027d,22-Jan-2021 13:28:05,22-Jan-2021 05:28:05,33.18072,-118.38834,090.0 037.0,090.0,037.0,8.000,8.057,,15.2668,,15.2651,,15.2660,33.4998,,33.5056,33.4965,,33.4985,33.5021,5.6099,,5.8712,5.8606,5.5570,,5.9001,5.8620,5.8613,244.486,256.1881,209.8592,242.181,272.3247,208.5169,209.1881,0.0635,,0.2721,0.2654, ,, , ,24.7576,,24.7554,,0.8121,81.6247,,,,3.6947E+00,,1.6166E-02,,15.2656,15.2639,0.0195,318.101,98.164,97.233,,,,,,,,,,,,
CalCOFI,2101RL,027,,2101_027d,22-Jan-2021 13:28:06,22-Jan-2021 05:28:06,33.18070,-118.38834,090.0 037.0,090.0,037.0,9.000,9.064,,15.2568,,15.2519,,15.2544,33.4979,,33.5037,33.4946,,33.4966,33.5002,5.6293,,5.8915,5.8809,5.5637,,5.9072,5.8691,5.8750,245.330,257.0716,210.5281,242.472,273.2632,208.7472,209.6377,0.0616,,0.2566,0.2493, ,, , ,24.7583,,24.7568,,0.8117,81.6334,,,,3.6947E+00,,1.0647E-02,,15.2554,15.2505,0.0227,318.058,98.482,97.323,,,,,,,,,,,,
CalCOFI,2101RL,027,,2101_027d,22-Jan-2021 13:28:07,22-Jan-2021 05:28:07,33.18070,-118.38834,090.0 037.0,090.0,037.0,10.000,10.071,,15.2161,,15.2070,,15.2116,33.4921,,33.4979,33.4888,,33.4908,33.4944,5.6356,,5.8981,5.8875,5.5840,,5.9288,5.8906,5.8891,245.605,257.3595,210.7460,243.358,273.5690,209.4482,210.0971,0.0621,,0.2607,0.2536, ,, , ,24.7628,,24.7623,,0.8105,81.6589,,,,3.6947E+00,,5.3997E-03,,15.2145,15.2055,0.0259,317.659,98.510,97.589,,,,,,,,,,,,
CalCOFI,2101RL,027,,2101_027d,22-Jan-2021 13:28:08,22-Jan-2021 05:28:08,33.18070,-118.38834,090.0 037.0,090.0,037.0,11.000,11.079,,15.1446,,15.1429,,15.1438,33.4838,,33.4896,33.4804,,33.4824,33.4860,5.6308,,5.8931,5.8825,5.5945,,5.9399,5.9017,5.8921,245.395,257.1397,210.5796,243.813,273.3355,209.8082,210.1939,0.0647,,0.2820,0.2756, ,, , ,24.7720,,24.7698,,0.8097,81.6755,,,,3.6947E+00,,8.8771E-04,,15.1430,15.1412,0.0291,316.812,98.282,97.642,11,,33.4802,5.887,256.68,0.291,0.066,,,,,
CalCOFI,2101RL,027,,2101_027d,22-Jan-2021 13:28:09,22-Jan-2021 05:28:09,33.18070,-118.38836,090.0 037.0,090.0,037.0,12.000,12.086,,15.1164,,15.1186,,15.1175,33.4804,,33.4862,33.4773,,33.4793,33.4828,5.6361,,5.8986,5.8880,5.5863,,5.9312,5.8930,5.8905,245.623,257.3784,210.7603,243.453,273.5890,209.5233,210.1418,0.0666,,0.2975,0.2919, ,, , ,24.7756,,24.7727,,0.8087,81.6947,,,,3.6947E+00,,2.4351E-03,,15.1146,15.1168,0.0323,316.504,98.316,97.450,,,,,,,,,,,,
CalCOFI,2101RL,027,,2101_027d,22-Jan-2021 13:28:10,22-Jan-2021 05:28:10,33.18070,-118.38836,090.0 037.0,090.0,037.0,13.000,13.093,,15.0927,,15.0925,,15.0926,33.4781,,33.4839,33.4748,,33.4768,33.4804,5.6313,,5.8936,5.8830,5.5917,,5.9369,5.8987,5.8909,245.412,257.1575,210.5931,243.685,273.3544,209.7069,210.1500,0.0674,,0.3041,0.2988, ,, , ,24.7791,,24.7765,,0.8084,81.7008,,,,3.6947E+00,,-4.580E-06,,15.0907,15.0905,0.0355,316.202,98.184,97.491,,,,,,,,,,,,
CalCOFI,2101RL,027,,2101_027d,22-Jan-2021 13:28:11,22-Jan-2021 05:28:11,33.18070,-118.38836,090.0 037.0,090.0,037.0,14.000,14.100,,15.0793,,15.0787,,15.0790,33.4772,,33.4830,33.4739,,33.4759,33.4795,5.6353,,5.8978,5.8872,5.5952,,5.9407,5.9024,5.8948,245.584,257.3375,210.7294,243.841,273.5457,209.8303,210.2799,0.0672,,0.3024,0.2971, ,, , ,24.7813,,24.7789,,0.8096,81.6776,,,,3.6947E+00,,1.0000E-12,,15.0772,15.0766,0.0387,316.016,98.227,97.526,,,,,,,,,,,,
CalCOFI,2101RL,027,,2101_027d,22-Jan-2021 13:28:12,22-Jan-2021 05:28:12,33.18070,-118.38836,090.0 037.0,090.0,037.0,15.000,15.107,,15.0651,,15.0656,,15.0654,33.4765,,33.4823,33.4732,,33.4752,33.4788,5.6407,,5.9035,5.8929,5.5974,,5.9430,5.9048,5.8989,245.820,257.5846,210.9164,243.934,273.8081,209.9039,210.4102,0.0704,,0.3287,0.3249, ,, , ,24.7839,,24.7812,,0.8100,81.6682,,,,3.6947E+00,,1.0000E-12,,15.0629,15.0633,0.0419,315.801,98.293,97.537,,,,,,,,,,,,
CalCOFI,2101RL,027,,2101_027d,22-Jan-2021 13:28:13,22-Jan-2021 05:28:13,33.18070,-118.38836,090.0 037.0,090.0,037.0,16.000,16.114,,15.0525,,15.0528,,15.0527,33.4758,,33.4816,33.4725,,33.4745,33.4781,5.6383,,5.9009,5.8903,5.5977,,5.9433,5.9051,5.8977,245.718,257.4778,210.8356,243.946,273.6947,209.9134,210.3745,0.0723,,0.3442,0.3417, ,, , ,24.7861,,24.7835,,0.8099,81.6695,,,,3.6947E+00,,1.0000E-12,,15.0501,15.0504,0.0451,315.624,98.227,97.517,,,,,,,,,,,,
CalCOFI,2101RL,027,,2101_027d,22-Jan-2021 13:28:15,22-Jan-2021 05:28:15,33.18070,-118.38836,090.0 037.0,090.0,037.0,17.000,17.122,,15.0401,,15.0384,,15.0393,33.4751,,33.4809,33.4718,,33.4738,33.4774,5.6445,,5.9074,5.8968,5.5863,,5.9312,5.8930,5.8949,245.985,257.7573,211.0472,243.450,273.9916,209.5210,210.2841,0.0766,,0.3795,0.3801, ,, , ,24.7883,,24.7861,,0.8106,81.6558,,,,3.6947E+00,,1.0000E-12,,15.0376,15.0359,0.0482,315.443,98.309,97.291,,,,,,,,,,,,
CalCOFI,2101RL,027,,2101_027d,22-Jan-2021 13:28:16,22-Jan-2021 05:28:16,33.18070,-118.38836,090.0 037.0,090.0,037.0,18.000,18.129,,15.0296,,15.0294,,15.0295,33.4749,,33.4807,33.4713,,33.4733,33.4770,5.6396,,5.9023,5.8917,5.5825,,5.9272,5.8890,5.8904,245.773,257.5354,210.8792,243.284,273.7558,209.3896,210.1344,0.0822,,0.4254,0.4312, ,, , ,24.7904,,24.7877,,0.8105,81.6582,,,,3.6947E+00,,1.0000E-12,,15.0269,15.0267,0.0514,315.272,98.204,97.207,,,,,,,,,,,,
CalCOFI,2101RL,027,,2101_027d,22-Jan-2021 13:28:17,22-Jan-2021 05:28:17,33.18070,-118.38836,090.0 037.0,090.0,037.0,19.000,19.136,,15.0017,,15.0041,,15.0029,33.4735,,33.4793,33.4705,,33.4725,33.4759,5.6525,,5.9158,5.9052,5.6044,,5.9504,5.9122,5.9087,246.335,258.1237,211.3246,244.239,274.3808,210.1452,210.7349,0.0836,,0.4368,0.4442, ,, , ,24.7955,,24.7927,,0.8111,81.6460,,,,3.6947E+00,,1.0000E-12,,14.9989,15.0013,0.0546,314.821,98.373,97.539,,,,,,,,,,,,
CalCOFI,2101RL,027,,2101_027d,22-Jan-2021 13:28:19,22-Jan-2021 05:28:19,33.18069,-118.38837,090.0 037.0,090.0,037.0,20.000,20.143,,14.9839,,14.9836,,14.9838,33.4730,,33.4788,33.4699,,33.4719,33.4754,5.6687,,5.9328,5.9221,5.6046,,5.9506,5.9124,5.9173,247.039,258.8606,211.8825,244.244,275.1636,210.1492,211.0159,0.0843,,0.4426,0.4508, ,, , ,24.7990,,24.7967,,0.8118,81.6314,,,,3.6947E+00,,1.0000E-12,,14.9809,14.9806,0.0577,314.514,98.620,97.501,,,,,,,,,,,,
CalCOFI,2101RL,027,,2101_027d,22-Jan-2021 13:28:25,22-Jan-2021 05:28:25,33.18065,-118.38839,090.0 037.0,090.0,037.0,21.000,21.151,,14.9688,,14.9664,,14.9676,33.4733,,33.4791,33.4702,,33.4722,33.4757,5.6508,,5.9140,5.9034,5.6105,,5.9569,5.9186,5.9110,246.256,258.0410,211.2620,244.501,274.2929,210.3525,210.8073,0.0815,,0.4196,0.4248, ,, , ,24.8026,,24.8007,,0.8147,81.5737,,,,3.6947E+00,,1.0000E-12,,14.9657,14.9633,0.0623,314.206,98.278,97.571,21,,33.4658,5.906,257.51,0.440,0.146,,,,,
CalCOFI,2101RL,027,,2101_027d,22-Jan-2021 13:28:31,22-Jan-2021 05:28:31,33.18062,-118.38840,090.0 037.0,090.0,037.0,22.000,22.158,,14.9264,,14.9284,,14.9274,33.4726,,33.4784,33.4693,,33.4713,33.4749,5.6705,,5.9346,5.9240,5.6140,,5.9606,5.9223,5.9232,247.115,258.9402,211.9428,244.651,275.2482,210.4712,211.2070,0.0901,,0.4901,0.5056, ,, , ,24.8112,,24.8082,,0.8172,81.5212,,,,3.6947E+00,,1.0000E-12,,14.9231,14.9251,0.0672,313.414,98.538,97.557,,,,,,,,,,,,
CalCOFI,2101RL,027,,2101_027d,22-Jan-2021 13:28:36,22-Jan-2021 05:28:36,33.18062,-118.38841,090.0 037.0,090.0,037.0,23.000,23.165,,14.8988,,14.8986,,14.8987,33.4722,,33.4780,33.4689,,33.4709,33.4745,5.6531,,5.9164,5.9058,5.5993,,5.9450,5.9068,5.9063,246.354,258.1436,211.3396,244.010,274.4019,209.9640,210.6518,0.0954,,0.5335,0.5569, ,, , ,24.8169,,24.8144,,0.8214,81.4368,,,,3.6947E+00,,1.0000E-12,,14.8954,14.8952,0.0716,312.901,98.181,97.244,,,,,,,,,,,,
CalCOFI,2101RL,027,,2101_027d,22-Jan-2021 13:28:41,22-Jan-2021 05:28:41,33.18062,-118.38842,090.0 037.0,090.0,037.0,24.000,24.172,,14.8444,,14.8452,,14.8448,33.4703,,33.4761,33.4670,,33.4690,33.4726,5.6186,,5.8803,5.8697,5.5683,,5.9121,5.8740,5.8719,244.850,256.5692,210.1477,242.659,272.7294,208.8951,209.5214,0.1089,,0.6441,0.6926, ,, , ,24.8272,,24.8245,,0.8296,81.2696,,,,3.6947E+00,,1.0000E-12,,14.8408,14.8416,0.0759,311.944,97.475,96.602,,,,,,,,,,,,
CalCOFI,2101RL,027,,2101_027d,22-Jan-2021 13:28:42,22-Jan-2021 05:28:42,33.18062,-118.38842,090.0 037.0,090.0,037.0,25.000,25.179,,14.7984,,14.8053,,14.8019,33.4683,,33.4741,33.4652,,33.4672,33.4707,5.6044,,5.8655,5.8549,5.5641,,5.9076,5.8695,5.8622,244.225,255.9149,209.6523,242.471,272.0344,208.7464,209.1994,0.1210,,0.7433,0.8206, ,, , ,24.8356,,24.8317,,0.8347,81.1657,,,,3.6947E+00,,1.0000E-12,,14.7947,14.8016,0.0791,311.175,97.137,96.450,,,,,,,,,,,,
CalCOFI,2101RL,027,,2101_027d,22-Jan-2021 13:28:44,22-Jan-2021 05:28:44,33.18062,-118.38842,090.0 037.0,090.0,037.0,26.000,26.187,,14.7356,,14.7372,,14.7364,33.4672,,33.4730,33.4640,,33.4660,33.4695,5.5798,,5.8397,5.8291,5.5521,,5.8949,5.8568,5.8430,243.153,254.7928,208.8027,241.946,270.8423,208.3310,208.5669,0.1377,,0.8801,1.0071, ,, , ,24.8482,,24.8454,,0.8416,81.0255,,,,3.6947E+00,,1.0000E-12,,14.7318,14.7333,0.0822,309.998,96.589,96.111,,,,,,,,,,,,
CalCOFI,2101RL,027,,2101_027d,22-Jan-2021 13:28:45,22-Jan-2021 05:28:45,33.18062,-118.38843,090.0 037.0,090.0,037.0,27.000,27.194,,14.7092,,14.7117,,14.7105,33.4687,,33.4745,33.4651,,33.4671,33.4708,5.5134,,5.7702,5.7597,5.5170,,5.8576,5.8196,5.7897,240.257,251.7612,206.5075,240.414,267.6220,207.1189,206.8132,0.1512,,0.9907,1.1660, ,, , ,24.8551,,24.8518,,0.8492,80.8724,,,,3.6947E+00,,1.0000E-12,,14.7052,14.7077,0.0853,309.374,95.390,95.454,,,,,,,,,,,,
CalCOFI,2101RL,027,,2101_027d,22-Jan-2021 13:28:48,22-Jan-2021 05:28:48,33.18062,-118.38844,090.0 037.0,090.0,037.0,28.000,28.201,,14.5889,,14.6110,,14.6000,33.4754,,33.4812,33.4740,,33.4760,33.4786,5.2572,,5.5021,5.4917,5.2867,,5.6130,5.5757,5.5337,229.085,240.0664,197.6533,230.370,255.1985,199.1722,198.4128,0.1832,,1.2530,1.5724, ,, , ,24.8860,,24.8801,,0.8676,80.5009,,,,3.6947E+00,,1.0000E-12,,14.5848,14.6069,0.0884,306.462,90.742,91.291,28,,33.4240,, ,,,,,,,
CalCOFI,2101RL,027,,2101_027d,22-Jan-2021 13:28:52,22-Jan-2021 05:28:52,33.18061,-118.38844,090.0 037.0,090.0,037.0,29.000,29.208,,14.2134,,14.2407,,14.2271,33.4694,,33.4752,33.4589,,33.4609,33.4681,5.0795,,5.3161,5.3058,5.0904,,5.4045,5.3679,5.3369,221.326,231.9443,191.5040,221.804,246.5704,192.3948,191.9494,0.1777,,1.2079,1.4996, ,, , ,24.9607,,24.9468,,0.8438,80.9819,,,,3.6947E+00,,1.0000E-12,,14.2093,14.2365,0.0914,299.359,87.013,87.242,,,,,,,,,,,,
CalCOFI,2101RL,027,,2101_027d,22-Jan-2021 13:28:56,22-Jan-2021 05:28:56,33.18060,-118.38844,090.0 037.0,090.0,037.0,30.000,30.216,,13.9578,,13.9653,,13.9616,33.4590,,33.4648,33.4553,,33.4573,33.4611,5.0516,,5.2869,5.2766,5.0119,,5.3211,5.2847,5.2807,220.102,230.6630,190.5339,218.373,245.2093,189.6803,190.1071,0.1644,,1.0989,1.3286, ,, , ,25.0060,,25.0016,,0.8235,81.3929,,,,3.6947E+00,,1.0000E-12,,13.9536,13.9610,0.0944,295.061,86.081,85.415,,,,,,,,,,,,
CalCOFI,2101RL,027,,2101_027d,22-Jan-2021 13:29:01,22-Jan-2021 05:29:01,33.18059,-118.38846,090.0 037.0,090.0,037.0,31.000,31.223,,13.9251,,13.9260,,13.9256,33.4572,,33.4630,33.4548,,33.4568,33.4599,5.0557,,5.2912,5.2809,5.0021,,5.3107,5.2744,5.2777,220.279,230.8483,190.6742,217.943,245.4061,189.3400,190.0071,0.1710,,1.1530,1.4126, ,, , ,25.0114,,25.0094,,0.8190,81.4842,,,,3.6947E+00,,1.0000E-12,,13.9206,13.9215,0.0974,294.575,86.092,85.179,,,,,,,,,,,,
CalCOFI,2101RL,027,,2101_027d,22-Jan-2021 13:29:05,22-Jan-2021 05:29:05,33.18058,-118.38846,090.0 037.0,090.0,037.0,32.000,32.230,,13.8867,,13.8907,,13.8887,33.4532,,33.4590,33.4504,,33.4524,33.4557,5.0672,,5.3032,5.2929,5.0202,,5.3300,5.2935,5.2932,220.780,231.3727,191.0712,218.731,245.9632,189.9635,190.5174,0.1540,,1.0137,1.1999, ,, , ,25.0163,,25.0133,,0.8151,81.5656,,,,3.6947E+00,,1.0000E-12,,13.8821,13.8861,0.1004,294.135,86.219,85.424,,,,,,,,,,,,
CalCOFI,2101RL,027,,2101_027d,22-Jan-2021 13:29:07,22-Jan-2021 05:29:07,33.18058,-118.38846,090.0 037.0,090.0,037.0,33.000,33.237,,13.8737,,13.8776,,13.8757,33.4513,,33.4571,33.4490,,33.4510,33.4541,5.0790,,5.3156,5.3052,5.0263,,5.3364,5.3000,5.3026,221.292,231.9087,191.4770,218.998,246.5326,190.1747,190.8259,0.1547,,1.0194,1.2085, ,, , ,25.0175,,25.0149,,0.8113,81.6413,,,,3.6947E+00,,1.0000E-12,,13.8690,13.8729,0.1033,294.049,86.395,85.505,,,,,,,,,,,,
CalCOFI,2101RL,027,,2101_027d,22-Jan-2021 13:29:09,22-Jan-2021 05:29:09,33.18057,-118.38846,090.0 037.0,090.0,037.0,34.000,34.245,,13.8513,,13.8570,,13.8542,33.4499,,33.4557,33.4467,,33.4487,33.4522,5.0696,,5.3057,5.2954,5.0208,,5.3306,5.2942,5.2948,220.884,231.4816,191.1537,218.757,246.0789,189.9841,190.5689,0.1565,,1.0342,1.2305, ,, , ,25.0211,,25.0174,,0.8085,81.6999,,,,3.6947E+00,,1.0000E-12,,13.8465,13.8522,0.1063,293.734,86.196,85.374,,,,,,,,,,,,
CalCOFI,2101RL,027,,2101_027d,22-Jan-2021 13:29:11,22-Jan-2021 05:29:11,33.18056,-118.38846,090.0 037.0,090.0,037.0,35.000,35.252,,13.7929,,13.8002,,13.7966,33.4478,,33.4536,33.4431,,33.4451,33.4494,5.0431,,5.2780,5.2677,4.9944,,5.3026,5.2662,5.2670,219.725,230.2683,190.2351,217.605,244.7900,189.0726,189.6539,0.1487,,0.9703,1.1360, ,, , ,25.0315,,25.0264,,0.8022,81.8279,,,,3.6947E+00,,1.0000E-12,,13.7879,13.7953,0.1092,292.769,85.642,84.826,,,,,,,,,,,,
CalCOFI,2101RL,027,,2101_027d,22-Jan-2021 13:29:14,22-Jan-2021 05:29:14,33.18056,-118.38846,090.0 037.0,090.0,037.0,36.000,36.259,,13.7455,,13.7464,,13.7460,33.4430,,33.4488,33.4365,,33.4385,33.4437,4.9822,,5.2143,5.2040,4.9590,,5.2650,5.2287,5.2164,217.069,227.4880,188.1301,216.061,241.8365,187.8510,187.9906,0.1403,,0.9014,1.0371, ,, , ,25.0376,,25.0323,,0.7987,81.9006,,,,3.6947E+00,,1.0000E-12,,13.7404,13.7414,0.1122,292.216,84.523,84.128,,,,,,,,,,,,
CalCOFI,2101RL,027,,2101_027d,22-Jan-2021 13:29:16,22-Jan-2021 05:29:16,33.18056,-118.38846,090.0 037.0,090.0,037.0,37.000,37.267,,13.7136,,13.7194,,13.7165,33.4387,,33.4445,33.4360,,33.4380,33.4413,4.8383,,5.0637,5.0534,4.8418,,5.1405,5.1046,5.0790,210.798,220.9235,183.1601,210.952,234.8631,183.8088,183.4845,0.1444,,0.9350,1.0850, ,, , ,25.0408,,25.0376,,0.7967,81.9404,,,,3.6947E+00,,1.0000E-12,,13.7084,13.7142,0.1151,291.934,82.026,82.094,,,,,,,,,,,,
CalCOFI,2101RL,027,,2101_027d,22-Jan-2021 13:29:18,22-Jan-2021 05:29:18,33.18056,-118.38846,090.0 037.0,090.0,037.0,38.000,38.274,,13.6016,,13.6034,,13.6025,33.4395,,33.4453,33.4367,,33.4387,33.4420,4.6248,,4.8402,4.8301,4.6920,,4.9814,4.9460,4.8881,201.493,211.1831,175.7855,204.422,224.5158,178.6423,177.2139,0.1423,,0.9178,1.0604, ,, , ,25.0644,,25.0618,,0.7870,82.1395,,,,3.6947E+00,,1.0000E-12,,13.5962,13.5981,0.1181,289.713,78.229,79.367,,,,,,,,,,,,
CalCOFI,2101RL,027,,2101_027d,22-Jan-2021 13:29:19,22-Jan-2021 05:29:19,33.18055,-118.38846,090.0 037.0,090.0,037.0,39.000,39.281,,13.5427,,13.5415,,13.5421,33.4416,,33.4474,33.4386,,33.4406,33.4440,4.4749,,4.6833,4.6733,4.5230,,4.8019,4.7670,4.7202,194.958,204.3422,170.6063,197.055,217.2488,172.8136,171.7100,0.1387,,0.8883,1.0186, ,, , ,25.0779,,25.0759,,0.7839,82.2041,,,,3.6947E+00,,1.0000E-12,,13.5372,13.5360,0.1210,288.446,75.602,76.412,,,,,,,,,,,,
CalCOFI,2101RL,027,,2101_027d,22-Jan-2021 13:29:20,22-Jan-2021 05:29:20,33.18054,-118.38846,090.0 037.0,090.0,037.0,40.000,40.289,,13.4617,,13.4605,,13.4611,33.4751,,33.4809,33.4723,,33.4743,33.4776,4.4309,,4.6373,4.6272,4.4255,,4.6983,4.6638,4.6455,193.035,202.3292,169.0822,192.799,215.1103,169.4463,169.2643,0.1487,,0.9703,1.1360, ,, , ,25.1203,,25.1184,,0.7835,82.2105,,,,3.6947E+00,,1.0000E-12,,13.4562,13.4550,0.1239,284.436,74.751,74.657,,,,,,,,,,,,
CalCOFI,2101RL,027,,2101_027d,22-Jan-2021 13:29:22,22-Jan-2021 05:29:22,33.18054,-118.38846,090.0 037.0,090.0,037.0,41.000,41.296,,13.3226,,13.3303,,13.3265,33.4865,,33.4923,33.4828,,33.4848,33.4886,4.3895,,4.5940,4.5839,4.3769,,4.6467,4.6123,4.5981,191.223,200.4324,167.6462,190.675,213.0954,167.7659,167.7061,0.1356,,0.8629,0.9830, ,, , ,25.1572,,25.1528,,0.7792,82.2995,,,,3.6609E+00,,1.0000E-12,,13.3170,13.3246,0.1267,280.942,73.847,73.645,,,,,,,,,,,,
CalCOFI,2101RL,027,,2101_027d,22-Jan-2021 13:29:24,22-Jan-2021 05:29:24,33.18054,-118.38846,090.0 037.0,090.0,037.0,42.000,42.303,,13.0779,,13.0817,,13.0798,33.4732,,33.4790,33.4704,,33.4724,33.4757,4.3475,,4.5500,4.5400,4.3340,,4.6011,4.5669,4.5535,189.389,198.5126,166.1926,188.799,211.0559,166.2816,166.2371,0.1229,,0.7589,0.8413, ,, , ,25.1959,,25.1929,,0.7698,82.4945,,,,3.6946E+00,,1.0000E-12,,13.0721,13.0760,0.1295,277.272,72.768,72.546,,,,,,,,,,,,
CalCOFI,2101RL,027,,2101_027d,22-Jan-2021 13:29:26,22-Jan-2021 05:29:26,33.18054,-118.38846,090.0 037.0,090.0,037.0,43.000,43.311,,12.9288,,12.9231,,12.9260,33.4892,,33.4950,33.4715,,33.4735,33.4843,4.2518,,4.4498,4.4399,4.2597,,4.5222,4.4882,4.4641,185.212,194.1401,162.8822,185.556,206.4111,163.7157,163.2990,0.1146,,0.6908,0.7522, ,, , ,25.2378,,25.2253,,0.7655,82.5825,,,,3.6947E+00,,1.0000E-12,,12.9230,12.9173,0.1323,273.299,70.955,71.069,,,,,,,,,,,,
CalCOFI,2101RL,027,,2101_027d,22-Jan-2021 13:29:29,22-Jan-2021 05:29:29,33.18054,-118.38847,090.0 037.0,090.0,037.0,44.000,44.318,,12.7839,,12.7853,,12.7846,33.4749,,33.4807,33.4715,,33.4735,33.4771,4.1017,,4.2927,4.2829,4.1317,,4.3863,4.3526,4.3178,178.668,187.2899,157.6958,179.979,199.1340,159.3033,158.4996,0.1117,,0.6671,0.7217, ,, , ,25.2552,,25.2523,,0.7593,82.7098,,,,3.6947E+00,,1.0000E-12,,12.7780,12.7794,0.1350,271.660,68.238,68.739,,,,,,,,,,,,
CalCOFI,2101RL,027,,2101_027d,22-Jan-2021 13:29:30,22-Jan-2021 05:29:30,33.18054,-118.38848,090.0 037.0,090.0,037.0,45.000,45.325,,12.4337,,12.4334,,12.4336,33.4742,,33.4800,33.4721,,33.4741,33.4771,4.0676,,4.2571,4.2472,4.0805,,4.3319,4.2984,4.2728,177.172,185.7238,156.5102,177.732,197.4704,157.5255,157.0179,0.0994,,0.5663,0.5963, ,, , ,25.3227,,25.3211,,0.7495,82.9127,,,,3.6947E+00,,1.0000E-12,,12.4278,12.4275,0.1377,265.245,67.180,67.391,,,,,,,,,,,,
CalCOFI,2101RL,027,,2101_027d,22-Jan-2021 13:29:32,22-Jan-2021 05:29:32,33.18054,-118.38848,090.0 037.0,090.0,037.0,46.000,46.333,,12.2641,,12.2632,,12.2637,33.4780,,33.4838,33.4759,,33.4779,33.4809,4.0154,,4.2024,4.1926,4.0152,,4.2625,4.2293,4.2110,174.892,183.3371,154.7032,174.882,194.9350,155.2706,154.9869,0.0908,,0.4958,0.5123, ,, , ,25.3581,,25.3567,,0.7420,83.0685,,,,3.6947E+00,,1.0000E-12,,12.2581,12.2572,0.1404,261.882,66.085,66.079,,,,,,,,,,,,
CalCOFI,2101RL,027,,2101_027d,22-Jan-2021 13:29:33,22-Jan-2021 05:29:33,33.18052,-118.38848,090.0 037.0,090.0,037.0,47.000,47.340,,12.0759,,12.0756,,12.0758,33.5027,,33.5085,33.5005,,33.5025,33.5055,3.9828,,4.1683,4.1585,3.9769,,4.2219,4.1887,4.1736,173.464,181.8423,153.5715,173.205,193.3471,153.9437,153.7576,0.0832,,0.4335,0.4405, ,, , ,25.4131,,25.4114,,0.7364,83.1852,,,,3.6947E+00,,1.0000E-12,,12.0698,12.0695,0.1430,256.669,65.301,65.202,,,,,,,,,,,,
CalCOFI,2101RL,027,,2101_027d,22-Jan-2021 13:29:35,22-Jan-2021 05:29:35,33.18052,-118.38848,090.0 037.0,090.0,037.0,48.000,48.347,,11.9732,,11.9744,,11.9738,33.5142,,33.5200,33.5104,,33.5124,33.5162,3.9522,,4.1363,4.1265,3.9360,,4.1784,4.1454,4.1360,172.125,180.4407,152.5103,171.421,191.8581,152.5323,152.5213,0.0787,,0.3967,0.3991, ,, , ,25.4414,,25.4382,,0.7323,83.2699,,,,3.6567E+00,,1.0000E-12,,11.9671,11.9683,0.1456,253.989,64.664,64.399,,,,,,,,,,,,
CalCOFI,2101RL,027,,2101_027d,22-Jan-2021 13:29:37,22-Jan-2021 05:29:37,33.18052,-118.38848,090.0 037.0,090.0,037.0,49.000,49.355,,11.9123,,11.9134,,11.9129,33.5236,,33.5294,33.5194,,33.5214,33.5254,3.9506,,4.1346,4.1248,3.9256,,4.1674,4.1344,4.1296,172.054,180.3663,152.4540,170.965,191.7791,152.1715,152.3128,0.0737,,0.3557,0.3541, ,, , ,25.4602,,25.4567,,0.7306,83.3051,,,,3.6945E+00,,1.0000E-12,,11.9060,11.9072,0.1481,252.225,64.559,64.150,,,,,,,,,,,,
CalCOFI,2101RL,027,,2101_027d,22-Jan-2021 13:29:40,22-Jan-2021 05:29:40,33.18052,-118.38848,090.0 037.0,090.0,037.0,50.000,50.362,,11.8893,,11.8897,,11.8895,33.5367,,33.5425,33.5264,,33.5284,33.5355,3.9205,,4.1031,4.0933,3.8942,,4.1340,4.1011,4.0972,170.741,178.9919,151.4134,169.594,190.3191,151.0867,151.2501,0.0715,,0.3377,0.3346, ,, , ,25.4747,,25.4666,,0.7296,83.3256,,,,3.6947E+00,,1.0000E-12,,11.8830,11.8833,0.1507,250.870,64.042,63.608,,,,,,,,,,,,
CalCOFI,2101RL,027,,2101_027d,22-Jan-2021 13:29:43,22-Jan-2021 05:29:43,33.18052,-118.38850,090.0 037.0,090.0,037.0,51.000,51.369,,11.8435,,11.8457,,11.8446,33.5376,,33.5434,33.5351,,33.5371,33.5403,3.8677,,4.0478,4.0381,3.8521,,4.0893,4.0566,4.0474,168.440,176.5832,149.5897,167.759,187.7603,149.6349,149.6123,0.0696,,0.3221,0.3179, ,, , ,25.4840,,25.4816,,0.7282,83.3564,,,,3.6577E+00,,1.0000E-12,,11.8370,11.8392,0.1532,250.008,63.119,62.866,51,,33.5245,4.078,177.81,0.263,0.269,,,,,